Regional Weather Roundup
Issued by NWS

Home | Current Version | Previous Version | Graphics & Text | Print | Product List | Glossary On
Versions: 1 2 3 4 5 6 7 8 9 10 11 12 13 14 15 16 17 18 19 20 21 22 23 24 25 26 27 28 29 30 31 32 33 34 35 36 37 38 39 40 41 42 43 44 45 46 47 48 49 50
000
ASUS43 KIND 190009
RWRIN

WEATHER ROUNDUP FOR INDIANA
NATIONAL WEATHER SERVICE INDIANAPOLIS IN
800 PM EDT WED APR 18 2018

NOTE: "FAIR" INDICATES FEW OR NO CLOUDS BELOW 12,000 FEET WITH NO
SIGNIFICANT WEATHER AND/OR OBSTRUCTIONS TO VISIBILITY.

* - STATION DOES NOT REPORT WEATHER SUCH AS PRECIPITATION OR FOG.

+ - STATION NOT QUALITY CONTROLLED BY THE NATIONAL WEATHER SERVICE.
    USE DATA WITH CAUTION...ESPECIALLY DEWPOINT AND RELATIVE
    HUMIDITY OBSERVATIONS.

INZ001>003-010>013-019-020-190100-
NORTHWEST INDIANA

CITY           SKY/WX    TMP DP  RH WIND       PRES   REMARKS
GARY /AIRPORT/ LGT RAIN  36  36 100 N10       29.84R WCI  28
KNOX *+        CLOUDY    36  36 100 N7        29.80R WCI  30
LA PORTE +     CLOUDY    36  35  96 N3        29.80R FOG
6HR MIN TEMP:  36; 6HR MAX TEMP:  39; 6HR PCP:  0.01;

MICHIGAN CITY+ DRIZZLE   34  34 100 N7        29.82R WCI  28
MONTICELLO +   CLOUDY    42  33  70 NW9       29.77R
6HR MIN TEMP:  42; 6HR MAX TEMP:  45;

RENSSELAER +   CLOUDY    37  32  81 NW9       29.83R WCI  31
VALPARAISO     CLOUDY    37  35  92 N6        29.81R FOG     WCI  32
6HR MIN TEMP:  37; 6HR MAX TEMP:  42; 6HR PCP: TRACE;


$$

LMZ046-743>745-190100-
SOUTHERN LAKE MICHIGAN

STATION/POSITION TIME  TEMP    WIND        PRES    WAVE
                       AIR SEA DIR/SP/G            HT
                 (UTC) (F)     (DEG/KT/KT) (MB)    (FT)
BURNS HARBOR     2310   35      20/ 15/ 20 1009.8
MICHIGAN CITY    2340   35     360/ 19/ 20   N/A

$$

INZ004-005-014>016-021>024-190100-
NORTH CENTRAL INDIANA

CITY           SKY/WX    TMP DP  RH WIND       PRES   REMARKS
ELKHART        DRIZZLE   37  36  93 CALM      29.79R FOG
GOSHEN         CLOUDY    38  35  89 N7        29.77R FOG     WCI  33
6HR MIN TEMP:  38; 6HR MAX TEMP:  42; 6HR PCP:  0.07;

LOGANSPORT +   CLOUDY    43  34  70 NW13G21   29.78R
PERU/GRISSOM   CLOUDY    46  38  75 W10       29.74R
6HR MIN TEMP:  44; 6HR MAX TEMP:  49;

ROCHESTER +    MOCLDY    41  36  81 NW7       29.78R
SOUTH BEND     CLOUDY    36  35  96 NE6       29.80R FOG     WCI  31
6HR MIN TEMP:  36; 6HR MAX TEMP:  40; 6HR PCP:  0.05;

WARSAW +       CLOUDY    37  36  93 NE5       29.76R WCI  34

$$

INZ006>009-017-018-025>027-190100-
NORTHEAST INDIANA

CITY           SKY/WX    TMP DP  RH WIND       PRES   REMARKS
ANGOLA *+      CLOUDY    37  36  93 NE7       29.75R WCI  32
AUBURN +       CLOUDY    37  36  93 NE10      29.76R WCI  30
FORT WAYNE     CLOUDY    42  36  79 NE14      29.74R
6HR MIN TEMP:  41; 6HR MAX TEMP:  44; 6HR PCP:  0.02;

HUNTINGTON +   CLOUDY    42  36  78 NE7       29.74R
6HR MIN TEMP:  42; 6HR MAX TEMP:  45; 6HR PCP:  0.01;

KENDALLVILLE + CLOUDY    38  35  89 NE7       29.76R WCI  32

$$

INZ028-029-035-036-043>045-051>053-190100-
WEST CENTRAL INDIANA

CITY           SKY/WX    TMP DP  RH WIND       PRES   REMARKS
CRAWFORDSVL +  MOCLDY    43  35  72 W24G36    29.80R
6HR MIN TEMP:  43; 6HR MAX TEMP:  62;

GREENCASTLE +  FAIR      46  32  57 NW14G28   29.79R
LAFAYETTE      CLOUDY    44  35  70 W21G28    29.80R
6HR MIN TEMP:  44; 6HR MAX TEMP:  49;

TERRE HAUTE    FAIR      49  36  61 NW20G33   29.82R
6HR MIN TEMP:  49; 6HR MAX TEMP:  71; 6HR PCP: TRACE;


$$

INZ030>032-037>040-046>048-054>057-064-065-190100-
CENTRAL INDIANA

CITY           SKY/WX    TMP DP  RH WIND       PRES   REMARKS
COLUMBUS       CLOUDY    59 N/A N/A NW16G25   29.72R
FRANKFORT +    CLOUDY    48  39  71 NW22G31   29.78R
6HR MIN TEMP:  48; 6HR MAX TEMP:  59;

GREENWOOD *+   FAIR      52  38  60 NW18G26   29.76R
INDIANAPOLIS   FAIR      51  37  58 W23G31    29.77R
6HR MIN TEMP:  51; 6HR MAX TEMP:  70;

-EAGLE CREEK   FAIR      51  38  60 W15G23    29.76R
6HR MIN TEMP:  51; 6HR MAX TEMP:  66;

KOKOMO +       CLOUDY    46  39  76 NW9       29.76R
6HR MIN TEMP:  46; 6HR MAX TEMP:  50;

MARION +       CLOUDY    48  38  69 CALM      29.73R
MT COMFORT *+  MOCLDY    54  43  66 W28G37    29.75R
SHELBYVILLE    CLOUDY    57  40  52 W25G37    29.73R
6HR MIN TEMP:  57; 6HR MAX TEMP:  68; 6HR PCP: TRACE;

ZIONSVILLE +   FAIR      48  40  73 W18G28    29.76R
6HR MIN TEMP:  48; 6HR MAX TEMP:  62;


$$

INZ033-034-041-042-049-050-058-059-190100-
EAST CENTRAL INDIANA

CITY           SKY/WX    TMP DP  RH WIND       PRES   REMARKS
MUNCIE         MOCLDY    52  40  63 N5        29.71R
6HR MIN TEMP:  52; 6HR MAX TEMP:  58;

RICHMOND +     CLOUDY    54  48  82 NW6       29.70R

$$

INZ060-061-067>069-081>083-085>088-190100-
SOUTHWEST INDIANA

CITY           SKY/WX    TMP DP  RH WIND       PRES   REMARKS
EVANSVILLE     FAIR      61  45  55 NW18G30   29.80R
6HR MIN TEMP:  61; 6HR MAX TEMP:  77;

HUNTINGBURG +  FAIR      59  46  62 NW22G30   29.79R
6HR MIN TEMP:  59; 6HR MAX TEMP:  76; 6HR PCP:  0.06;

WASHINGTON +   FAIR      53  38  56 NW20G31   29.81R
6HR MIN TEMP:  53; 6HR MAX TEMP:  75;


$$

INZ062-063-066-070>080-084-089>092-190100-
SOUTH CENTRAL AND SOUTHEAST INDIANA

CITY           SKY/WX    TMP DP  RH WIND       PRES   REMARKS
BATESVILLE +   CLOUDY    61  50  67 MISG      29.70R
BLOOMINGTON    FAIR      53  39  59 W18G29    29.77R
6HR MIN TEMP:  53; 6HR MAX TEMP:  72;

FRENCH LICK *+ CLOUDY    55  37  50 W10G25    29.77R
MADISON *+     CLOUDY    64  48  55 W7        29.70R
NORTH VERNON + CLOUDY    61  48  63 NW15G25   29.71R
SEYMOUR +      CLOUDY    64  46  52 NW16G24   29.72R

$$




USA.gov is the U.S. government's official web portal to all federal, state and local government web resources and services.